Hourly Weather Abaliget

Today, 21 October, Wednesday

Time Temperature Precipitation Wind Pressure Humidity
00:00 +8°C° 0 mm 3 mps 751 mmHg 68%
01:00 +8°C° 0 mm 3 mps 751 mmHg 71%
02:00 +8°C° 0 mm 3 mps 750 mmHg 72%
03:00 +8°C° 0 mm 3 mps 750 mmHg 73%
04:00 +8°C° 0 mm 3 mps 749 mmHg 73%
05:00 +8°C° 0 mm 3 mps 749 mmHg 74%
06:00 +8°C° 0 mm 2 mps 749 mmHg 74%
07:00 +8°C° 0 mm 2 mps 749 mmHg 74%
08:00 +10°C° 0 mm 3 mps 749 mmHg 68%
09:00 +12°C° 0 mm 3 mps 749 mmHg 61%
10:00 +14°C° 0 mm 4 mps 749 mmHg 54%
11:00 +17°C° 0 mm 4 mps 749 mmHg 51%
12:00 +18°C° 0 mm 4 mps 749 mmHg 47%
13:00 +19°C° 0 mm 5 mps 749 mmHg 44%
14:00 +19°C° 0 mm 4 mps 748 mmHg 48%
15:00 +18°C° 0 mm 4 mps 748 mmHg 51%
16:00 +17°C° 0 mm 3 mps 748 mmHg 55%
17:00 +16°C° 0 mm 3 mps 748 mmHg 58%
18:00 +13°C° 0 mm 3 mps 748 mmHg 62%
19:00 +12°C° 0 mm 3 mps 748 mmHg 65%
20:00 +12°C° 0 mm 3 mps 748 mmHg 67%
21:00 +12°C° 0 mm 3 mps 748 mmHg 68%
22:00 +11°C° 0 mm 3 mps 748 mmHg 69%
23:00 +11°C° 0 mm 3 mps 748 mmHg 69%

Tomorrow, 22 October, Thursday

Time Temperature Precipitation Wind Pressure Humidity
00:00 +11°C° 0 mm 3 mps 748 mmHg 69%
01:00 +11°C° 0 mm 3 mps 748 mmHg 69%
02:00 +11°C° 0 mm 4 mps 748 mmHg 70%
03:00 +11°C° 0 mm 4 mps 748 mmHg 71%
04:00 +10°C° 0 mm 4 mps 748 mmHg 72%
05:00 +10°C° 0 mm 4 mps 749 mmHg 73%
06:00 +10°C° 0 mm 4 mps 749 mmHg 74%
07:00 +10°C° 0 mm 4 mps 750 mmHg 75%
08:00 +12°C° 0 mm 4 mps 750 mmHg 70%
09:00 +14°C° 0 mm 5 mps 750 mmHg 65%
10:00 +16°C° 0 mm 6 mps 750 mmHg 60%
11:00 +17°C° 0 mm 6 mps 750 mmHg 57%
12:00 +19°C° 0 mm 5 mps 750 mmHg 55%
13:00 +20°C° 0 mm 5 mps 749 mmHg 52%
14:00 +19°C° 0 mm 4 mps 749 mmHg 56%
15:00 +19°C° 0 mm 3 mps 749 mmHg 59%
16:00 +18°C° 0 mm 3 mps 749 mmHg 62%
17:00 +17°C° 0 mm 3 mps 748 mmHg 66%
18:00 +16°C° 0 mm 3 mps 748 mmHg 69%
19:00 +13°C° 0 mm 3 mps 748 mmHg 72%
20:00 +13°C° 0 mm 3 mps 748 mmHg 73%
21:00 +13°C° 0 mm 3 mps 748 mmHg 74%
22:00 +12°C° 0 mm 3 mps 748 mmHg 75%
23:00 +12°C° 0 mm 3 mps 748 mmHg 76%

Day after tomorrow, 23 October, Friday

Time Temperature Precipitation Wind Pressure Humidity
00:00 +12°C° 0 mm 3 mps 748 mmHg 76%
01:00 +12°C° 0 mm 3 mps 748 mmHg 77%
02:00 +11°C° 0 mm 3 mps 748 mmHg 78%
03:00 +11°C° 0 mm 3 mps 748 mmHg 78%
04:00 +11°C° 0 mm 3 mps 748 mmHg 79%
05:00 +11°C° 0 mm 3 mps 748 mmHg 80%
06:00 +11°C° 0 mm 3 mps 748 mmHg 80%
07:00 +11°C° 0 mm 3 mps 748 mmHg 81%
08:00 +13°C° 0 mm 4 mps 748 mmHg 74%
09:00 +15°C° 0 mm 5 mps 748 mmHg 68%
10:00 +17°C° 0 mm 5 mps 748 mmHg 61%
11:00 +19°C° 0 mm 5 mps 747 mmHg 58%
12:00 +20°C° 0 mm 6 mps 747 mmHg 55%
13:00 +21°C° 0 mm 6 mps 746 mmHg 52%
14:00 +20°C° 0 mm 5 mps 746 mmHg 55%
15:00 +20°C° 0 mm 4 mps 745 mmHg 58%
16:00 +19°C° 0 mm 4 mps 745 mmHg 61%
17:00 +18°C° 0 mm 4 mps 745 mmHg 64%
18:00 +17°C° 0 mm 4 mps 745 mmHg 67%
19:00 +17°C° 0 mm 4 mps 745 mmHg 70%
20:00 +15°C° 0 mm 4 mps 745 mmHg 70%
21:00 +15°C° 0 mm 4 mps 745 mmHg 71%
22:00 +15°C° 0 mm 4 mps 746 mmHg 71%
23:00 +16°C° 0 mm 3 mps 746 mmHg 74%

24 October, Saturday

Time Temperature Precipitation Wind Pressure Humidity
00:00 +14°C° 0 mm 3 mps 746 mmHg 76%
01:00 +14°C° 0 mm 3 mps 746 mmHg 78%
02:00 +14°C° 0 mm 3 mps 746 mmHg 80%
03:00 +14°C° 0 mm 2 mps 746 mmHg 81%
04:00 +14°C° 0 mm 2 mps 746 mmHg 83%
05:00 +14°C° 0.1 mm 2 mps 747 mmHg 84%
06:00 +14°C° 0.1 mm 2 mps 747 mmHg 84%
07:00 +14°C° 0.1 mm 2 mps 747 mmHg 84%
08:00 +14°C° 0.2 mm 2 mps 748 mmHg 85%
09:00 +14°C° 0.2 mm 2 mps 748 mmHg 87%
10:00 +14°C° 0.2 mm 2 mps 749 mmHg 88%
11:00 +15°C° 0 mm 2 mps 749 mmHg 82%
12:00 +16°C° 0 mm 2 mps 749 mmHg 76%
13:00 +17°C° 0 mm 2 mps 749 mmHg 69%
14:00 +17°C° 0 mm 2 mps 749 mmHg 69%
15:00 +17°C° 0 mm 2 mps 749 mmHg 69%
16:00 +18°C° 0 mm 1 mps 749 mmHg 69%
17:00 +16°C° 0 mm 1 mps 749 mmHg 74%
18:00 +14°C° 0 mm 1 mps 749 mmHg 79%
19:00 +13°C° 0 mm 1 mps 749 mmHg 84%
20:00 +13°C° 0 mm 1 mps 749 mmHg 85%
21:00 +12°C° 0 mm 1 mps 750 mmHg 86%
22:00 +12°C° 0 mm 1 mps 750 mmHg 87%
23:00 +12°C° 0 mm 1 mps 749 mmHg 88%

25 October, Sunday

Time Temperature Precipitation Wind Pressure Humidity
00:00 +11°C° 0 mm 0 mps 749 mmHg 89%
01:00 +10°C° 0 mm 0 mps 749 mmHg 89%
02:00 +10°C° 0 mm 0 mps 749 mmHg 89%
03:00 +10°C° 0 mm 0 mps 749 mmHg 89%
04:00 +10°C° 0 mm 0 mps 749 mmHg 89%
05:00 +10°C° 0 mm 0 mps 749 mmHg 88%
06:00 +10°C° 0 mm 0 mps 748 mmHg 88%
07:00 +10°C° 0 mm 0 mps 748 mmHg 87%
08:00 +13°C° 0 mm 1 mps 748 mmHg 79%
09:00 +15°C° 0 mm 1 mps 748 mmHg 71%
10:00 +16°C° 0 mm 2 mps 748 mmHg 63%
11:00 +17°C° 0 mm 2 mps 748 mmHg 60%
12:00 +18°C° 0 mm 2 mps 747 mmHg 56%
13:00 +19°C° 0 mm 2 mps 747 mmHg 52%
14:00 +18°C° 0 mm 2 mps 746 mmHg 55%
15:00 +18°C° 0 mm 2 mps 746 mmHg 57%
16:00 +17°C° 0 mm 2 mps 745 mmHg 60%
17:00 +16°C° 0 mm 2 mps 745 mmHg 62%
18:00 +15°C° 0 mm 2 mps 745 mmHg 65%
19:00 +13°C° 0 mm 2 mps 745 mmHg 67%
20:00 +13°C° 0 mm 2 mps 745 mmHg 72%
21:00 +13°C° 0 mm 2 mps 745 mmHg 76%
22:00 +12°C° 0 mm 2 mps 745 mmHg 80%
23:00 +12°C° 0 mm 2 mps 745 mmHg 85%

26 October, Monday

Time Temperature Precipitation Wind Pressure Humidity
00:00 +12°C° 0 mm 2 mps 744 mmHg 89%
01:00 +12°C° 0 mm 2 mps 744 mmHg 94%
02:00 +12°C° 0 mm 2 mps 743 mmHg 94%
03:00 +12°C° 0 mm 2 mps 743 mmHg 94%
04:00 +10°C° 0 mm 3 mps 743 mmHg 95%
05:00 +10°C° 0 mm 2 mps 743 mmHg 95%
06:00 +10°C° 0 mm 2 mps 743 mmHg 95%
07:00 +10°C° 0 mm 2 mps 742 mmHg 95%
08:00 +11°C° 0 mm 3 mps 742 mmHg 89%
09:00 +13°C° 0 mm 3 mps 742 mmHg 83%
10:00 +14°C° 0 mm 3 mps 742 mmHg 78%
11:00 +16°C° 0 mm 3 mps 742 mmHg 73%
12:00 +17°C° 0 mm 3 mps 741 mmHg 68%
13:00 +18°C° 0 mm 2 mps 741 mmHg 63%
14:00 +17°C° 0 mm 2 mps 741 mmHg 65%
15:00 +17°C° 0 mm 2 mps 740 mmHg 67%
16:00 +16°C° 0 mm 1 mps 740 mmHg 69%
17:00 +16°C° 0 mm 1 mps 740 mmHg 73%
18:00 +15°C° 0 mm 1 mps 740 mmHg 76%
19:00 +14°C° 0 mm 1 mps 740 mmHg 79%
20:00 +13°C° 0 mm 1 mps 740 mmHg 81%
21:00 +13°C° 0 mm 2 mps 740 mmHg 83%
22:00 +13°C° 0 mm 2 mps 740 mmHg 86%
23:00 +12°C° 0 mm 2 mps 740 mmHg 88%

27 October, Tuesday

Time Temperature Precipitation Wind Pressure Humidity
00:00 +12°C° 0 mm 2 mps 740 mmHg 91%
01:00 +10°C° 0 mm 2 mps 739 mmHg 93%
02:00 +10°C° 0 mm 2 mps 739 mmHg 93%
03:00 +10°C° 0 mm 2 mps 739 mmHg 94%
04:00 +10°C° 0 mm 2 mps 739 mmHg 94%
05:00 +10°C° 0 mm 3 mps 739 mmHg 94%
06:00 +10°C° 0 mm 3 mps 739 mmHg 94%
07:00 +10°C° 0 mm 3 mps 739 mmHg 94%
08:00 +11°C° 0 mm 3 mps 740 mmHg 88%
09:00 +13°C° 0 mm 3 mps 740 mmHg 82%
10:00 +14°C° 0 mm 4 mps 740 mmHg 76%
11:00 +15°C° 0 mm 4 mps 740 mmHg 71%
12:00 +17°C° 0 mm 4 mps 740 mmHg 65%
13:00 +19°C° 0 mm 4 mps 740 mmHg 60%
14:00 +18°C° 0.1 mm 4 mps 741 mmHg 63%
15:00 +18°C° 0.1 mm 3 mps 741 mmHg 65%
16:00 +17°C° 0.1 mm 3 mps 741 mmHg 68%
17:00 +16°C° 0.1 mm 3 mps 742 mmHg 71%
18:00 +16°C° 0.1 mm 3 mps 742 mmHg 75%
19:00 +14°C° 0.1 mm 3 mps 742 mmHg 78%
20:00 +13°C° 0 mm 3 mps 743 mmHg 81%
21:00 +13°C° 0 mm 3 mps 743 mmHg 83%
22:00 +13°C° 0 mm 3 mps 744 mmHg 85%
23:00 +12°C° 0 mm 3 mps 744 mmHg 87%
Show more